{"data":{"norad_id":58427,"epoch":"2026-09-21T18:17:46.142304Z","epoch_age_seconds":132959,"freshness":"FRESH","line1":"1 58427U 23181C   26264.76233961 -.00000071  00000+0  10138-3 0  9992","line2":"2 58427  49.9605 332.6186 0012001 193.5623 166.4932 13.41493891138717","mean_motion":13.41493891,"eccentricity":0.0012001,"inclination_deg":49.9605,"raan_deg":332.6186,"arg_perigee_deg":193.5623,"mean_anomaly_deg":166.4932,"bstar":0.00010138,"rev_number":13871,"period_min":107.3430158468,"perigee_km":1094.7405384741,"apogee_km":1112.6984904801,"semimajor_km":7481.8565144771,"source":"CELESTRAK","updated_at":"2026-09-22T09:00:26.635011Z"}}